DW1282 Weather Reports


time (UTC)temp
C
wind
direction
speed
KPH
gust
KPH
rain 1hr
cm
rain 24hr
cm
rain mn
cm
humidity
%
barometer
mb
20260508023012 9 242 4.8 12.9 0.00 2.08 2.08 100 1001.5
20260508021509 9 202 3.2 6.4 0.00 2.08 2.08 100 1001.7
20260508020012 10 202 0.0 9.7 0.00 2.08 2.08 100 1001.8
20260508014509 9 201 0.0 6.4 0.00 2.08 2.08 100 1001.7
20260508013008 9 201 0.0 6.4 0.00 2.08 2.08 100 1001.6
20260508011509 9 201 1.6 9.7 0.00 2.08 2.08 100 1001.5
20260508010020 9 202 3.2 9.7 0.00 2.08 2.08 100 1002.0
20260508004506 8 202 3.2 9.7 0.00 2.08 2.08 100 1001.9
20260508003006 8 202 3.2 11.3 0.00 2.08 2.08 100 1001.8
20260508001508 8 187 3.2 14.5 0.00 2.08 2.08 100 1001.8
20260508000006 9 203 1.6 12.9 0.00 2.08 2.08 100 1002.1
20260507234508 9 199 4.8 19.3 0.00 2.08 2.08 99 1001.9
20260507233005 9 197 4.8 17.7 0.00 2.08 2.08 99 1002.0
20260507231503 9 191 8.0 19.3 0.00 2.08 2.08 99 1002.5
20260507230003 10 192 6.4 17.7 0.00 2.08 2.08 99 1002.3
20260507224503 10 191 8.0 24.1 0.00 2.08 2.08 99 1002.7
20260507223002 10 221 6.4 16.1 0.00 2.08 2.08 98 1002.4
20260507221501 10 195 8.0 27.4 0.00 2.08 2.08 99 1002.6
20260507220100 10 218 12.9 30.6 0.00 2.08 2.08 99 1002.7
20260507214600 9 256 9.7 22.5 0.08 2.08 2.08 99 1002.9
20260507213059 9 214 9.7 32.2 0.23 2.08 2.08 99 1002.4
20260507211601 9 196 12.9 32.2 0.43 2.08 2.08 99 1001.8
20260507210053 9 183 12.9 29.0 0.61 2.08 2.08 99 1002.4
20260507204550 10 179 8.0 17.7 0.79 2.01 2.01 99 1003.4
20260507203048 10 187 8.0 19.3 0.99 1.83 1.83 99 1003.7
20260507201545 10 184 8.0 16.1 0.99 1.65 1.65 98 1004.0
20260507200042 10 233 3.2 24.1 0.97 1.45 1.45 99 1004.8
20260507194541 10 250 8.0 25.7 0.79 1.17 1.17 98 1005.0
20260507193046 10 229 12.9 27.4 0.61 0.86 0.86 98 1004.7
20260507191538 11 203 14.5 30.6 0.43 0.61 0.61 97 1004.8
20260507190039 11 215 16.1 38.6 0.33 0.51 0.51 97 1004.8
20260507184536 11 154 14.5 24.1 0.20 0.38 0.38 97 1005.0
20260507183035 11 198 12.9 27.4 0.05 0.23 0.23 96 1005.3
20260507181534 11 197 11.3 25.7 0.03 0.20 0.20 95 1004.9
20260507180032 12 202 14.5 38.6 0.00 0.18 0.18 93 1004.9
20260507174545 13 174 16.1 32.2 0.00 0.18 0.18 91 1005.0
20260507173029 12 200 9.7 24.1 0.00 0.18 0.18 93 1005.4
20260507171540 12 185 6.4 24.1 0.00 0.18 0.18 92 1005.6
20260507170026 12 208 14.5 30.6 0.00 0.18 0.18 93 1005.9
20260507164525 12 196 12.9 30.6 0.00 0.18 0.18 93 1006.4
20260507163023 12 187 20.9 48.3 0.00 0.18 0.18 93 1006.6
20260507161521 12 205 17.7 45.1 0.00 0.18 0.18 92 1007.3
20260507160018 12 214 17.7 33.8 0.00 0.18 0.18 93 1007.7
20260507154519 12 250 17.7 40.2 0.00 0.18 0.18 93 1007.7
20260507153018 12 225 16.1 46.7 0.00 0.18 0.18 94 1008.2
20260507151511 12 202 19.3 37.0 0.00 0.18 0.18 94 1008.5
20260507150008 12 180 16.1 41.8 0.00 0.18 0.18 95 1008.7
20260507144506 12 208 14.5 32.2 0.00 0.18 0.18 96 1009.1
20260507143003 11 211 17.7 38.6 0.00 0.18 0.18 96 1009.7
20260507141501 12 229 19.3 38.6 0.00 0.18 0.18 95 1010.0
20260507140113 12 219 19.3 41.8 0.00 0.18 0.18 96 1010.2
20260507134610 12 187 17.7 41.8 0.00 0.18 0.18 96 1010.1
20260507133106 12 250 14.5 35.4 0.00 0.18 0.18 96 1010.4
20260507131621 12 185 16.1 33.8 0.03 0.18 0.18 97 1010.2
20260507130106 11 167 12.9 24.1 0.03 0.18 0.18 96 1010.0
20260507124600 12 192 6.4 37.0 0.03 0.18 0.18 97 1010.3
20260507123056 12 187 16.1 40.2 0.03 0.18 0.18 97 1010.5
20260507121548 11 191 20.9 35.4 0.00 0.15 0.15 97 1011.0
20260507120047 11 222 19.3 33.8 0.00 0.15 0.15 98 1011.1
20260507114546 11 187 20.9 33.8 0.00 0.15 0.15 98 1011.8
20260507113105 11 220 17.7 40.2 0.00 0.15 0.15 98 1011.8
20260507111544 11 200 14.5 25.7 0.00 0.15 0.15 98 1011.9
20260507110041 11 185 14.5 29.0 0.00 0.15 0.15 98 1011.8
20260507104542 11 189 14.5 35.4 0.00 0.15 0.15 98 1011.9
20260507103036 10 198 17.7 33.8 0.00 0.15 0.15 98 1012.6
20260507101536 10 182 11.3 27.4 0.00 0.15 0.15 98 1012.2
20260507100042 10 179 8.0 20.9 0.03 0.15 0.15 99 1012.2
20260507094528 10 192 11.3 27.4 0.05 0.15 0.15 99 1012.5
20260507093028 11 202 9.7 20.9 0.10 0.15 0.15 99 1012.9
20260507091523 11 181 11.3 17.7 0.15 0.15 0.15 99 1012.6
20260507090022 10 202 6.4 11.3 0.13 0.15 0.15 99 1012.9
20260507084542 10 202 6.4 16.1 0.10 0.10 0.10 99 1012.9
20260507083024 10 194 6.4 16.1 0.05 0.05 0.05 98 1012.9
20260507081516 10 188 6.4 16.1 0.03 0.03 0.03 98 1012.9
20260507080015 10 189 8.0 19.3 0.00 0.00 0.00 98 1013.2
20260507074511 10 194 6.4 27.4 0.00 0.00 0.00 98 1013.8
20260507073009 10 192 9.7 20.9 0.00 0.00 0.00 98 1014.0
20260507071515 11 184 9.7 27.4 0.00 0.00 0.00 98 1014.2
20260507070015 11 189 12.9 20.9 0.00 0.00 0.00 98 1014.0
20260507064503 11 178 9.7 20.9 0.00 0.00 0.00 97 1014.3
20260507063059 11 188 9.7 20.9 0.00 0.00 0.00 97 1014.4
20260507061556 11 175 8.0 17.7 0.00 0.00 0.00 97 1014.6
20260507060053 11 207 8.0 19.3 0.00 0.00 0.00 97 1014.9
20260507054550 11 196 8.0 19.3 0.00 0.00 0.00 97 1015.0
20260507053047 11 201 8.0 24.1 0.00 0.00 0.00 97 1015.1
20260507051544 11 220 9.7 20.9 0.00 0.00 0.00 97 1015.5
20260507044550 11 200 12.9 22.5 0.00 0.00 0.00 97 1016.0
20260507043037 11 215 8.0 20.9 0.00 0.00 0.00 97 1016.3
20260507041536 11 222 9.7 25.7 0.00 0.00 0.00 97 1016.5
20260507040033 11 220 11.3 24.1 0.00 0.00 0.00 97 1016.6
20260507034536 11 194 12.9 22.5 0.00 0.00 0.00 97 1016.9
20260507033036 12 234 6.4 24.1 0.00 0.00 0.00 96 1017.1
20260507031531 12 237 11.3 25.7 0.00 0.00 0.00 96 1017.3
20260507030024 12 229 8.0 22.5 0.00 0.00 0.00 95 1017.4
20260507024522 12 231 8.0 25.7 0.00 0.00 0.00 94 1017.5